User: anonymous   Login
Location: Basse Occidentale du Courleau
(48.3833°N, 4.8333°W)
Time: 20:29:24
(UTC+00:00)
Language:

Cosmos 1538 Rocket - Orbit

View from above orbital plane
View from above orbital plane
View from above satellite
View from above satellite

Ground track
Ground track

The orbit data is extracted from the following two-line orbital elements,

1 14760U 84019B   20269.92516707 -.00000088 +00000-0 -21262-4 0  9991
2 14760 074.0403 086.3628 0027746 010.2814 349.8900 14.35887903915133
Epoch (UTC): 25 September 2020 22:12:14
Eccentricity: 0.0027746
inclination: 74.0403°
perigee height: 752 km
apogee height: 792 km
right ascension of ascending node: 86.3628°
argument of perigee: 10.2814°
revolutions per day: 14.35887903
mean anomaly at epoch: 349.8900°
orbit number at epoch: 91513

The dashed part of the orbit path shows where the satellite is in the earth's shadow,  

DLR